Location: Doux
(49.5045°N, 4.4321°E)
Time: 01:59:05
(UTC+00:00)

CZ-2D R/B - Pass Details

Date: 23 May 2024
Orbit: 790 x 843 km, 98.8° (Epoch: 16 June)

Event Time Altitude Azimuth Distance (km) Brightness Sun altitude
Rises 00:11:00 0° 30° (NNE) 3,411 6.6 -19.5°
Reaches altitude 10° 00:14:40 10° 55° (NE) 2,466 5.2 -19.4°
Maximum altitude 00:17:27 14° 86° (E) 2,179 4.5 -19.3°
Drops below altitude 10° 00:20:14 10° 117° (ESE) 2,446 4.4 -19.3°
Enters shadow 00:21:26 - 127° (SE) 2,702 4.6 -19.2°
